Time,TemperatureF,DewpointF,PressureIn,WindDirection,WindDirectionDegrees,WindSpeedMPH,WindSpeedGustMPH,Humidity,HourlyPrecipIn,Conditions,Clouds,dailyrainin,SoftwareType,DateUTC
2013-04-10 00:00:00,54.7,45.9,29.92,ENE,69,0.0,3.0,72,0.00,,,0.00,meteohub,2013-04-10 04:00:00,
2013-04-10 00:01:00,54.7,45.9,29.92,ENE,69,1.0,3.0,72,0.00,,,0.00,meteohub,2013-04-10 04:01:00,
2013-04-10 00:02:00,54.7,45.9,29.92,ENE,69,0.0,3.0,72,0.00,,,0.00,meteohub,2013-04-10 04:02:00,
2013-04-10 00:07:00,54.5,45.7,29.92,ENE,69,0.0,1.0,72,0.00,,,0.00,meteohub,2013-04-10 04:07:00,
2013-04-10 00:12:00,54.3,45.1,29.92,ENE,69,1.0,1.0,71,0.00,,,0.00,meteohub,2013-04-10 04:12:00,
2013-04-10 00:17:00,54.1,45.0,29.92,ENE,69,0.0,3.0,71,0.00,,,0.00,meteohub,2013-04-10 04:17:00,
2013-04-10 00:22:00,54.0,45.5,29.93,ENE,69,4.0,4.0,73,0.00,,,0.00,meteohub,2013-04-10 04:22:00,
2013-04-10 00:27:00,54.0,45.1,29.92,ENE,57,0.0,4.0,72,0.00,,,0.00,meteohub,2013-04-10 04:27:00,
2013-04-10 00:32:00,54.0,45.5,29.92,ENE,57,0.0,5.0,73,0.00,,,0.00,meteohub,2013-04-10 04:32:00,
2013-04-10 00:37:00,54.0,45.5,29.92,ENE,57,0.0,5.0,73,0.00,,,0.00,meteohub,2013-04-10 04:37:00,
2013-04-10 00:43:00,53.8,45.0,29.93,ENE,57,0.0,2.0,72,0.00,,,0.00,meteohub,2013-04-10 04:43:00,
2013-04-10 00:48:00,53.6,45.1,29.93,ENE,57,1.0,2.0,73,0.00,,,0.00,meteohub,2013-04-10 04:48:00,
2013-04-10 00:53:00,53.6,45.5,29.93,ENE,57,0.0,2.0,74,0.00,,,0.00,meteohub,2013-04-10 04:53:00,
2013-04-10 00:59:00,53.6,45.5,29.92,ENE,57,0.0,2.0,74,0.00,,,0.00,meteohub,2013-04-10 04:59:00,
2013-04-10 01:04:00,53.6,45.5,29.92,ENE,57,0.0,2.0,74,0.00,,,0.00,meteohub,2013-04-10 05:04:00,
2013-04-10 01:09:00,53.8,45.7,29.93,ENE,57,0.0,3.0,74,0.00,,,0.00,meteohub,2013-04-10 05:09:00,
2013-04-10 01:14:00,53.8,46.0,29.93,ENE,57,0.0,3.0,75,0.00,,,0.00,meteohub,2013-04-10 05:14:00,
2013-04-10 01:19:00,54.0,46.6,29.93,ENE,57,1.0,3.0,76,0.00,,,0.00,meteohub,2013-04-10 05:19:00,
2013-04-10 01:24:00,54.1,46.4,29.93,ENE,57,1.0,2.0,75,0.00,,,0.00,meteohub,2013-04-10 05:24:00,
2013-04-10 01:30:00,54.1,46.4,29.93,ENE,57,0.0,2.0,75,0.00,,,0.00,meteohub,2013-04-10 05:30:00,
2013-04-10 01:35:00,54.3,46.6,29.93,ENE,57,0.0,2.0,75,0.00,,,0.00,meteohub,2013-04-10 05:35:00,
2013-04-10 01:40:00,54.3,46.2,29.93,ENE,57,0.0,2.0,74,0.00,,,0.00,meteohub,2013-04-10 05:40:00,
2013-04-10 01:46:00,54.7,46.6,29.93,ENE,57,1.0,1.0,74,0.00,,,0.00,meteohub,2013-04-10 05:46:00,
2013-04-10 01:51:00,54.7,46.9,29.93,ENE,57,0.0,2.0,75,0.00,,,0.00,meteohub,2013-04-10 05:51:00,
2013-04-10 01:56:00,54.7,46.6,29.93,ENE,57,0.0,2.0,74,0.00,,,0.00,meteohub,2013-04-10 05:56:00,
2013-04-10 02:01:00,54.9,46.8,29.93,ENE,57,0.0,2.0,74,0.00,,,0.00,meteohub,2013-04-10 06:01:00,
2013-04-10 02:06:00,55.0,46.9,29.93,ENE,57,0.0,1.0,74,0.00,,,0.00,meteohub,2013-04-10 06:06:00,
2013-04-10 02:12:00,55.6,47.8,29.93,ENE,57,0.0,0.0,75,0.00,,,0.00,meteohub,2013-04-10 06:12:00,
2013-04-10 02:17:00,55.8,48.0,29.94,ENE,57,1.0,0.0,75,0.00,,,0.00,meteohub,2013-04-10 06:17:00,
2013-04-10 02:22:00,55.8,48.0,29.94,ENE,57,1.0,2.0,75,0.00,,,0.00,meteohub,2013-04-10 06:22:00,
2013-04-10 02:27:00,55.8,48.0,29.94,ENE,57,0.0,2.0,75,0.00,,,0.00,meteohub,2013-04-10 06:27:00,
2013-04-10 02:32:00,55.8,48.0,29.95,ENE,57,0.0,2.0,75,0.00,,,0.00,meteohub,2013-04-10 06:32:00,
2013-04-10 02:37:00,55.9,48.2,29.95,NE,55,2.0,2.0,75,0.00,,,0.00,meteohub,2013-04-10 06:37:00,
2013-04-10 02:43:00,56.5,48.7,29.95,NE,43,2.0,3.0,75,0.00,,,0.00,meteohub,2013-04-10 06:43:00,
2013-04-10 02:48:00,57.0,48.7,29.95,NE,46,0.0,4.0,74,0.00,,,0.00,meteohub,2013-04-10 06:48:00,
2013-04-10 02:53:00,57.4,49.1,29.95,NE,46,3.0,4.0,74,0.00,,,0.00,meteohub,2013-04-10 06:53:00,
2013-04-10 02:58:00,57.2,49.6,29.95,North,10,2.0,4.0,76,0.00,,,0.00,meteohub,2013-04-10 06:58:00,
2013-04-10 03:03:00,56.5,50.0,29.95,ENE,59,1.0,5.0,79,0.00,,,0.00,meteohub,2013-04-10 07:03:00,
2013-04-10 03:08:00,55.9,50.2,29.95,ENE,65,0.0,5.0,81,0.00,,,0.00,meteohub,2013-04-10 07:08:00,
2013-04-10 03:14:00,55.4,50.0,29.95,ENE,65,1.0,5.0,82,0.00,,,0.00,meteohub,2013-04-10 07:14:00,
2013-04-10 03:19:00,55.0,50.0,29.96,ENE,65,1.0,4.0,83,0.00,,,0.00,meteohub,2013-04-10 07:19:00,
2013-04-10 03:24:00,54.7,49.6,29.95,ENE,65,0.0,2.0,83,0.00,,,0.00,meteohub,2013-04-10 07:24:00,
2013-04-10 03:29:00,54.3,49.6,29.94,ENE,73,2.0,3.0,84,0.00,,,0.00,meteohub,2013-04-10 07:29:00,
2013-04-10 03:34:00,54.0,49.6,29.94,East,80,0.0,4.0,85,0.00,,,0.00,meteohub,2013-04-10 07:34:00,
2013-04-10 03:40:00,53.6,49.5,29.94,East,80,0.0,4.0,86,0.00,,,0.00,meteohub,2013-04-10 07:40:00,
2013-04-10 03:45:00,53.2,49.5,29.94,ESE,109,3.0,4.0,87,0.00,,,0.00,meteohub,2013-04-10 07:45:00,
2013-04-10 03:50:00,53.1,49.3,29.94,ESE,110,2.0,3.0,87,0.01,,,0.01,meteohub,2013-04-10 07:50:00,
2013-04-10 03:55:00,52.5,49.1,29.94,ESE,110,0.0,3.0,88,0.01,,,0.01,meteohub,2013-04-10 07:55:00,
2013-04-10 04:00:00,52.2,48.7,29.94,ESE,111,0.0,3.0,88,0.01,,,0.01,meteohub,2013-04-10 08:00:00,
2013-04-10 04:06:00,52.0,48.9,29.94,ESE,111,1.0,3.0,89,0.01,,,0.01,meteohub,2013-04-10 08:06:00,
2013-04-10 04:11:00,51.6,48.7,29.94,ESE,111,0.0,3.0,90,0.01,,,0.01,meteohub,2013-04-10 08:11:00,
2013-04-10 04:16:00,51.4,48.6,29.94,ESE,111,2.0,2.0,90,0.01,,,0.01,meteohub,2013-04-10 08:16:00,
2013-04-10 04:21:00,51.3,48.4,29.94,ESE,111,2.0,3.0,90,0.01,,,0.01,meteohub,2013-04-10 08:21:00,
2013-04-10 04:26:00,50.9,48.0,29.94,ESE,111,1.0,3.0,90,0.01,,,0.01,meteohub,2013-04-10 08:26:00,
2013-04-10 04:32:00,50.7,48.2,29.93,ESE,111,1.0,3.0,91,0.01,,,0.01,meteohub,2013-04-10 08:32:00,
2013-04-10 04:37:00,50.5,48.0,29.93,ESE,111,1.0,3.0,91,0.01,,,0.01,meteohub,2013-04-10 08:37:00,
2013-04-10 04:42:00,50.4,48.2,29.94,ESE,111,0.0,2.0,92,0.00,,,0.01,meteohub,2013-04-10 08:42:00,
2013-04-10 04:47:00,50.2,48.0,29.94,ESE,111,0.0,2.0,92,0.00,,,0.01,meteohub,2013-04-10 08:47:00,
2013-04-10 04:52:00,49.8,47.7,29.94,ESE,111,0.0,2.0,92,0.00,,,0.01,meteohub,2013-04-10 08:52:00,
2013-04-10 04:57:00,49.6,47.5,29.94,ESE,111,0.0,2.0,92,0.00,,,0.01,meteohub,2013-04-10 08:57:00,
2013-04-10 05:03:00,49.5,47.3,29.94,ESE,111,1.0,2.0,92,0.00,,,0.01,meteohub,2013-04-10 09:03:00,
2013-04-10 05:08:00,49.5,47.5,29.93,ESE,111,1.0,2.0,93,0.00,,,0.01,meteohub,2013-04-10 09:08:00,
2013-04-10 05:13:00,49.3,47.3,29.93,SE,143,0.0,4.0,93,0.00,,,0.01,meteohub,2013-04-10 09:13:00,
2013-04-10 05:18:00,49.3,47.3,29.93,SE,142,3.0,4.0,93,0.00,,,0.01,meteohub,2013-04-10 09:18:00,
2013-04-10 05:23:00,49.1,47.1,29.93,SE,142,1.0,4.0,93,0.00,,,0.01,meteohub,2013-04-10 09:23:00,
2013-04-10 05:29:00,48.9,46.9,29.92,SE,142,2.0,4.0,93,0.00,,,0.01,meteohub,2013-04-10 09:29:00,
2013-04-10 05:34:00,48.7,46.8,29.92,SE,142,1.0,4.0,93,0.00,,,0.01,meteohub,2013-04-10 09:34:00,
2013-04-10 05:39:00,48.7,46.8,29.92,SE,143,2.0,3.0,93,0.00,,,0.01,meteohub,2013-04-10 09:39:00,
2013-04-10 05:44:00,48.7,46.8,29.91,SE,142,2.0,3.0,93,0.00,,,0.01,meteohub,2013-04-10 09:44:00,
2013-04-10 05:49:00,48.6,46.6,29.91,SE,142,0.0,3.0,93,0.00,,,0.01,meteohub,2013-04-10 09:49:00,
2013-04-10 05:54:00,48.6,46.6,29.91,SE,142,0.0,3.0,93,0.00,,,0.01,meteohub,2013-04-10 09:54:00,
2013-04-10 05:59:00,48.6,46.6,29.91,SE,143,0.0,3.0,93,0.00,,,0.01,meteohub,2013-04-10 09:59:00,
2013-04-10 06:04:00,48.6,46.6,29.92,SE,143,0.0,3.0,93,0.00,,,0.01,meteohub,2013-04-10 10:04:00,
2013-04-10 06:09:00,48.6,46.6,29.91,SE,143,0.0,2.0,93,0.00,,,0.01,meteohub,2013-04-10 10:09:00,
2013-04-10 06:15:00,48.7,47.1,29.92,SE,143,1.0,2.0,94,0.00,,,0.01,meteohub,2013-04-10 10:15:00,
2013-04-10 06:20:00,48.9,47.3,29.92,SE,146,0.0,1.0,94,0.00,,,0.01,meteohub,2013-04-10 10:20:00,
2013-04-10 06:25:00,49.3,47.7,29.92,SE,146,0.0,2.0,94,0.00,,,0.01,meteohub,2013-04-10 10:25:00,
2013-04-10 06:30:00,49.5,47.8,29.92,SSW,211,0.0,3.0,94,0.00,,,0.01,meteohub,2013-04-10 10:30:00,
2013-04-10 06:36:00,49.6,48.0,29.93,SW,225,0.0,3.0,94,0.00,,,0.01,meteohub,2013-04-10 10:36:00,
2013-04-10 06:41:00,49.8,48.2,29.92,SW,225,1.0,3.0,94,0.00,,,0.01,meteohub,2013-04-10 10:41:00,
2013-04-10 06:47:00,50.0,48.4,29.92,SW,225,2.0,3.0,94,0.00,,,0.01,meteohub,2013-04-10 10:47:00,
2013-04-10 06:52:00,50.4,48.7,29.92,SW,225,0.0,3.0,94,0.00,,,0.01,meteohub,2013-04-10 10:52:00,
2013-04-10 06:57:00,50.5,48.6,29.92,SW,223,0.0,2.0,93,0.00,,,0.01,meteohub,2013-04-10 10:57:00,
2013-04-10 07:02:00,50.7,48.7,29.92,WSW,238,1.0,4.0,93,0.00,,,0.01,meteohub,2013-04-10 11:02:00,
2013-04-10 07:07:00,51.1,49.1,29.92,SW,231,1.0,4.0,93,0.00,,,0.01,meteohub,2013-04-10 11:07:00,
2013-04-10 07:12:00,51.3,49.1,29.92,SW,223,3.0,4.0,92,0.00,,,0.01,meteohub,2013-04-10 11:12:00,
2013-04-10 07:17:00,51.4,49.3,29.92,WSW,237,2.0,5.0,92,0.00,,,0.01,meteohub,2013-04-10 11:17:00,
2013-04-10 07:22:00,51.8,49.3,29.92,WSW,255,2.0,5.0,91,0.00,,,0.01,meteohub,2013-04-10 11:22:00,
2013-04-10 07:27:00,52.2,49.3,29.92,WSW,248,1.0,5.0,90,0.00,,,0.01,meteohub,2013-04-10 11:27:00,
2013-04-10 07:32:00,52.3,49.5,29.93,WNW,288,0.0,5.0,90,0.00,,,0.01,meteohub,2013-04-10 11:32:00,
2013-04-10 07:37:00,52.5,49.5,29.92,SW,226,2.0,5.0,89,0.00,,,0.01,meteohub,2013-04-10 11:37:00,
2013-04-10 07:42:00,52.9,49.5,29.92,SW,230,0.0,5.0,88,0.00,,,0.01,meteohub,2013-04-10 11:42:00,
2013-04-10 07:47:00,53.1,49.6,29.92,SSW,213,1.0,5.0,88,0.00,,,0.01,meteohub,2013-04-10 11:47:00,
2013-04-10 07:52:00,53.2,49.8,29.91,WSW,244,1.0,6.0,88,0.00,,,0.01,meteohub,2013-04-10 11:52:00,
2013-04-10 07:57:00,53.4,49.6,29.91,WSW,242,1.0,6.0,87,0.00,,,0.01,meteohub,2013-04-10 11:57:00,
2013-04-10 08:02:00,54.0,50.2,29.91,West,278,0.0,6.0,87,0.00,,,0.01,meteohub,2013-04-10 12:02:00,
2013-04-10 08:07:00,54.3,50.5,29.92,NW,321,0.0,5.0,87,0.00,,,0.01,meteohub,2013-04-10 12:07:00,
2013-04-10 08:13:00,54.9,51.1,29.91,WSW,238,2.0,5.0,87,0.00,,,0.01,meteohub,2013-04-10 12:13:00,
2013-04-10 08:18:00,55.4,50.9,29.91,SW,219,2.0,4.0,85,0.00,,,0.01,meteohub,2013-04-10 12:18:00,
2013-04-10 08:23:00,55.8,51.1,29.91,SW,236,3.0,4.0,84,0.00,,,0.01,meteohub,2013-04-10 12:23:00,
2013-04-10 08:28:00,56.1,51.1,29.91,SW,216,0.0,4.0,83,0.00,,,0.01,meteohub,2013-04-10 12:28:00,
2013-04-10 08:33:00,56.5,51.1,29.91,SW,216,0.0,4.0,82,0.00,,,0.01,meteohub,2013-04-10 12:33:00,
2013-04-10 08:38:00,56.7,50.9,29.91,SW,216,2.0,4.0,81,0.00,,,0.01,meteohub,2013-04-10 12:38:00,
2013-04-10 08:44:00,57.0,51.3,29.91,SW,216,2.0,4.0,81,0.00,,,0.01,meteohub,2013-04-10 12:44:00,
2013-04-10 08:49:00,57.4,51.6,29.91,West,263,3.0,4.0,81,0.00,,,0.01,meteohub,2013-04-10 12:49:00,
2013-04-10 08:54:00,57.6,51.4,29.91,SW,230,2.0,4.0,80,0.00,,,0.01,meteohub,2013-04-10 12:54:00,
2013-04-10 08:59:00,57.7,51.3,29.91,SW,229,1.0,6.0,79,0.00,,,0.01,meteohub,2013-04-10 12:59:00,
2013-04-10 09:04:00,57.7,51.6,29.91,SW,229,1.0,6.0,80,0.00,,,0.01,meteohub,2013-04-10 13:04:00,
2013-04-10 09:09:00,57.9,51.4,29.91,SW,224,0.0,6.0,79,0.00,,,0.01,meteohub,2013-04-10 13:09:00,
2013-04-10 09:15:00,57.9,51.4,29.90,SW,227,2.0,5.0,79,0.00,,,0.01,meteohub,2013-04-10 13:15:00,
2013-04-10 09:20:00,57.9,51.4,29.91,SW,227,1.0,5.0,79,0.00,,,0.01,meteohub,2013-04-10 13:20:00,
2013-04-10 09:25:00,57.9,51.4,29.90,SW,233,3.0,4.0,79,0.00,,,0.01,meteohub,2013-04-10 13:25:00,
2013-04-10 09:30:00,57.9,51.8,29.90,WSW,242,0.0,4.0,80,0.00,,,0.01,meteohub,2013-04-10 13:30:00,
2013-04-10 09:35:00,57.7,52.0,29.90,WSW,242,0.0,4.0,81,0.00,,,0.01,meteohub,2013-04-10 13:35:00,
2013-04-10 09:40:00,57.7,52.3,29.90,WSW,241,1.0,4.0,82,0.00,,,0.01,meteohub,2013-04-10 13:40:00,
2013-04-10 09:45:00,57.6,52.5,29.90,WSW,241,1.0,4.0,83,0.00,,,0.01,meteohub,2013-04-10 13:45:00,
2013-04-10 09:50:00,57.6,52.7,29.90,WSW,242,1.0,4.0,84,0.00,,,0.01,meteohub,2013-04-10 13:50:00,
2013-04-10 09:55:00,57.7,53.2,29.90,WSW,242,0.0,3.0,85,0.00,,,0.01,meteohub,2013-04-10 13:55:00,
2013-04-10 10:01:00,57.9,53.1,29.89,WSW,238,0.0,3.0,84,0.00,,,0.01,meteohub,2013-04-10 14:01:00,
2013-04-10 10:06:00,58.3,53.4,29.89,WSW,238,1.0,3.0,84,0.00,,,0.01,meteohub,2013-04-10 14:06:00,
2013-04-10 10:12:00,58.6,53.8,29.89,WSW,248,2.0,3.0,84,0.00,,,0.01,meteohub,2013-04-10 14:12:00,
2013-04-10 10:17:00,59.0,54.1,29.88,WSW,244,1.0,5.0,84,0.00,,,0.01,meteohub,2013-04-10 14:17:00,
2013-04-10 10:22:00,59.4,54.1,29.88,SW,227,0.0,5.0,83,0.00,,,0.01,meteohub,2013-04-10 14:22:00,
2013-04-10 10:27:00,59.9,55.0,29.88,SW,227,1.0,5.0,84,0.00,,,0.01,meteohub,2013-04-10 14:27:00,
2013-04-10 10:32:00,60.4,55.6,29.88,SW,227,0.0,4.0,84,0.00,,,0.01,meteohub,2013-04-10 14:32:00,
2013-04-10 10:37:00,61.2,56.3,29.89,WSW,257,2.0,3.0,84,0.00,,,0.01,meteohub,2013-04-10 14:37:00,
2013-04-10 10:42:00,61.5,56.3,29.89,West,274,0.0,5.0,83,0.00,,,0.01,meteohub,2013-04-10 14:42:00,
2013-04-10 10:47:00,62.2,56.7,29.89,WNW,286,0.0,5.0,82,0.00,,,0.01,meteohub,2013-04-10 14:47:00,
2013-04-10 10:53:00,62.8,56.8,29.89,WNW,286,3.0,5.0,81,0.00,,,0.01,meteohub,2013-04-10 14:53:00,
2013-04-10 10:58:00,63.3,57.4,29.89,WNW,286,0.0,5.0,81,0.00,,,0.01,meteohub,2013-04-10 14:58:00,
2013-04-10 11:03:00,63.3,56.7,29.90,East,87,1.0,3.0,79,0.00,,,0.01,meteohub,2013-04-10 15:03:00,
2013-04-10 11:08:00,62.6,55.6,29.89,East,83,2.0,5.0,78,0.00,,,0.01,meteohub,2013-04-10 15:08:00,
2013-04-10 11:14:00,61.9,55.2,29.90,SE,131,2.0,5.0,79,0.00,,,0.01,meteohub,2013-04-10 15:14:00,
2013-04-10 11:19:00,61.3,55.0,29.89,SE,131,4.0,5.0,80,0.00,,,0.01,meteohub,2013-04-10 15:19:00,
2013-04-10 11:24:00,61.2,55.2,29.89,ESE,111,0.0,5.0,81,0.00,,,0.01,meteohub,2013-04-10 15:24:00,
2013-04-10 11:29:00,61.2,55.6,29.88,ESE,120,2.0,4.0,82,0.00,,,0.01,meteohub,2013-04-10 15:29:00,
2013-04-10 11:34:00,61.5,56.3,29.88,SSE,152,3.0,5.0,83,0.00,,,0.01,meteohub,2013-04-10 15:34:00,
2013-04-10 11:39:00,61.7,55.8,29.88,SSE,152,1.0,5.0,81,0.00,,,0.01,meteohub,2013-04-10 15:39:00,
2013-04-10 11:44:00,61.9,55.6,29.88,SSE,152,1.0,5.0,80,0.00,,,0.01,meteohub,2013-04-10 15:44:00,
2013-04-10 11:49:00,62.2,56.3,29.88,SSE,149,2.0,5.0,81,0.00,,,0.01,meteohub,2013-04-10 15:49:00,
2013-04-10 11:55:00,62.6,56.3,29.87,SE,131,4.0,4.0,80,0.00,,,0.01,meteohub,2013-04-10 15:55:00,
2013-04-10 12:00:00,62.8,56.1,29.87,SSE,154,2.0,4.0,79,0.00,,,0.01,meteohub,2013-04-10 16:00:00,
2013-04-10 12:05:00,62.4,56.1,29.86,SE,136,3.0,6.0,80,0.00,,,0.01,meteohub,2013-04-10 16:05:00,
2013-04-10 12:10:00,61.9,55.9,29.87,East,80,1.0,6.0,81,0.00,,,0.01,meteohub,2013-04-10 16:10:00,
2013-04-10 12:15:00,61.3,55.8,29.87,ENE,76,0.0,6.0,82,0.00,,,0.01,meteohub,2013-04-10 16:15:00,
2013-04-10 12:21:00,61.0,55.8,29.87,ENE,76,0.0,5.0,83,0.01,,,0.02,meteohub,2013-04-10 16:21:00,
2013-04-10 12:26:00,60.4,55.9,29.89,ENE,76,1.0,3.0,85,0.01,,,0.02,meteohub,2013-04-10 16:26:00,
2013-04-10 12:32:00,60.1,55.9,29.90,ENE,76,0.0,2.0,86,0.03,,,0.04,meteohub,2013-04-10 16:32:00,
2013-04-10 12:37:00,59.5,55.6,29.89,ENE,76,3.0,3.0,87,0.08,,,0.09,meteohub,2013-04-10 16:37:00,
2013-04-10 12:42:00,58.8,55.6,29.89,ENE,76,1.0,3.0,89,0.09,,,0.10,meteohub,2013-04-10 16:42:00,
2013-04-10 12:47:00,58.5,55.6,29.87,ENE,76,2.0,3.0,90,0.09,,,0.10,meteohub,2013-04-10 16:47:00,
2013-04-10 12:52:00,57.9,55.2,29.86,ENE,76,0.0,3.0,91,0.10,,,0.11,meteohub,2013-04-10 16:52:00,
2013-04-10 12:57:00,57.6,55.0,29.87,ENE,76,1.0,3.0,91,0.10,,,0.11,meteohub,2013-04-10 16:57:00,
2013-04-10 13:02:00,56.8,54.5,29.87,ENE,76,0.0,3.0,92,0.10,,,0.11,meteohub,2013-04-10 17:02:00,
2013-04-10 13:08:00,56.8,54.9,29.87,ENE,76,1.0,3.0,93,0.10,,,0.11,meteohub,2013-04-10 17:08:00,
2013-04-10 13:13:00,56.8,55.2,29.87,ENE,76,1.0,3.0,94,0.10,,,0.11,meteohub,2013-04-10 17:13:00,
2013-04-10 13:18:00,57.4,55.6,29.85,ENE,76,2.0,2.0,94,0.10,,,0.12,meteohub,2013-04-10 17:18:00,
2013-04-10 13:23:00,57.9,56.5,29.80,South,169,5.0,5.0,95,0.10,,,0.12,meteohub,2013-04-10 17:23:00,
2013-04-10 13:28:00,58.3,56.8,29.83,ESE,119,1.0,11.0,95,0.10,,,0.12,meteohub,2013-04-10 17:28:00,
2013-04-10 13:34:00,58.3,56.8,29.84,ESE,118,1.0,11.0,95,0.05,,,0.12,meteohub,2013-04-10 17:34:00,
2013-04-10 13:39:00,58.8,57.7,29.86,ENE,57,2.0,11.0,96,0.03,,,0.12,meteohub,2013-04-10 17:39:00,
2013-04-10 13:44:00,60.3,59.2,29.86,WNW,294,3.0,5.0,96,0.02,,,0.12,meteohub,2013-04-10 17:44:00,
2013-04-10 13:50:00,61.9,61.0,29.84,North,5,0.0,5.0,97,0.02,,,0.12,meteohub,2013-04-10 17:50:00,
2013-04-10 13:55:00,64.2,63.3,29.85,NNW,334,4.0,5.0,97,0.01,,,0.12,meteohub,2013-04-10 17:55:00,
2013-04-10 14:00:00,65.5,64.6,29.85,NW,319,8.0,8.0,97,0.01,,,0.12,meteohub,2013-04-10 18:00:00,
2013-04-10 14:05:00,66.9,63.5,29.84,WNW,285,7.0,14.0,89,0.01,,,0.12,meteohub,2013-04-10 18:05:00,
2013-04-10 14:10:00,67.8,63.9,29.85,NW,323,7.0,15.0,87,0.01,,,0.12,meteohub,2013-04-10 18:10:00,
2013-04-10 14:15:00,68.4,63.7,29.85,West,264,6.0,15.0,85,0.00,,,0.12,meteohub,2013-04-10 18:15:00,
2013-04-10 14:21:00,68.4,63.0,29.85,NW,315,5.0,12.0,83,0.00,,,0.12,meteohub,2013-04-10 18:21:00,
2013-04-10 14:26:00,68.5,63.1,29.85,NW,315,2.0,13.0,83,0.00,,,0.12,meteohub,2013-04-10 18:26:00,
2013-04-10 14:31:00,68.7,63.0,29.85,NW,326,8.0,13.0,82,0.00,,,0.12,meteohub,2013-04-10 18:31:00,
2013-04-10 14:37:00,68.5,62.4,29.85,NW,317,11.0,16.0,81,0.00,,,0.12,meteohub,2013-04-10 18:37:00,
2013-04-10 14:42:00,68.2,62.4,29.84,NNW,329,9.0,16.0,82,0.00,,,0.12,meteohub,2013-04-10 18:42:00,
2013-04-10 14:47:00,68.2,62.4,29.84,WNW,284,4.0,16.0,82,0.00,,,0.12,meteohub,2013-04-10 18:47:00,
2013-04-10 14:52:00,68.2,62.4,29.84,NW,304,5.0,13.0,82,0.00,,,0.12,meteohub,2013-04-10 18:52:00,
2013-04-10 14:57:00,68.4,62.2,29.84,WNW,298,5.0,10.0,81,0.00,,,0.12,meteohub,2013-04-10 18:57:00,
2013-04-10 15:02:00,68.0,61.9,29.83,WSW,257,3.0,15.0,81,0.00,,,0.12,meteohub,2013-04-10 19:02:00,
2013-04-10 15:08:00,67.8,61.7,29.83,WNW,283,5.0,15.0,81,0.00,,,0.12,meteohub,2013-04-10 19:08:00,
2013-04-10 15:13:00,67.8,62.1,29.83,West,273,3.0,13.0,82,0.00,,,0.12,meteohub,2013-04-10 19:13:00,
2013-04-10 15:18:00,67.6,62.2,29.83,West,270,3.0,13.0,83,0.01,,,0.13,meteohub,2013-04-10 19:18:00,
2013-04-10 15:23:00,67.3,62.2,29.83,WNW,295,5.0,11.0,84,0.01,,,0.13,meteohub,2013-04-10 19:23:00,
2013-04-10 15:28:00,67.1,62.4,29.82,WNW,298,1.0,11.0,85,0.01,,,0.13,meteohub,2013-04-10 19:28:00,
2013-04-10 15:33:00,67.1,62.4,29.83,NNE,29,3.0,11.0,85,0.01,,,0.13,meteohub,2013-04-10 19:33:00,
2013-04-10 15:38:00,63.9,56.8,29.83,NE,40,0.0,8.0,78,0.01,,,0.13,meteohub,2013-04-10 19:38:00,
2013-04-10 15:43:00,61.0,56.1,29.83,North,0,2.0,17.0,84,0.08,,,0.20,meteohub,2013-04-10 19:43:00,
2013-04-10 15:48:00,58.1,53.6,29.83,NNW,342,3.0,17.0,85,0.08,,,0.20,meteohub,2013-04-10 19:48:00,
2013-04-10 15:54:00,56.3,53.1,29.84,NE,36,3.0,9.0,89,0.08,,,0.20,meteohub,2013-04-10 19:54:00,
2013-04-10 15:59:00,55.2,52.3,29.83,NE,40,2.0,9.0,90,0.08,,,0.20,meteohub,2013-04-10 19:59:00,
2013-04-10 16:04:00,54.7,52.3,29.83,NE,36,1.0,9.0,92,0.08,,,0.20,meteohub,2013-04-10 20:04:00,
2013-04-10 16:09:00,54.5,52.5,29.82,NNE,31,1.0,6.0,93,0.08,,,0.20,meteohub,2013-04-10 20:09:00,
2013-04-10 16:14:00,54.7,52.7,29.82,NNE,31,2.0,6.0,93,0.08,,,0.20,meteohub,2013-04-10 20:14:00,
2013-04-10 16:19:00,55.0,53.4,29.81,NE,34,1.0,4.0,94,0.07,,,0.20,meteohub,2013-04-10 20:19:00,
2013-04-10 16:25:00,55.2,53.6,29.81,North,0,0.0,4.0,94,0.07,,,0.20,meteohub,2013-04-10 20:25:00,
2013-04-10 16:30:00,55.4,53.8,29.81,NNE,19,0.0,5.0,94,0.07,,,0.20,meteohub,2013-04-10 20:30:00,
2013-04-10 16:35:00,55.6,54.0,29.81,NNE,19,0.0,5.0,94,0.05,,,0.20,meteohub,2013-04-10 20:35:00,
2013-04-10 16:40:00,55.8,54.1,29.81,NNE,19,0.0,5.0,94,0.05,,,0.20,meteohub,2013-04-10 20:40:00,
2013-04-10 16:45:00,55.9,54.3,29.82,NNE,19,2.0,2.0,94,0.00,,,0.20,meteohub,2013-04-10 20:45:00,
2013-04-10 16:51:00,55.9,54.3,29.84,ENE,69,5.0,5.0,94,0.00,,,0.20,meteohub,2013-04-10 20:51:00,
2013-04-10 16:56:00,54.0,50.2,29.83,East,96,1.0,10.0,87,0.00,,,0.20,meteohub,2013-04-10 20:56:00,
2013-04-10 17:01:00,52.2,49.1,29.85,NNE,18,1.0,13.0,89,0.00,,,0.20,meteohub,2013-04-10 21:01:00,
2013-04-10 17:07:00,50.9,48.4,29.85,NW,304,3.0,13.0,91,0.00,,,0.20,meteohub,2013-04-10 21:07:00,
2013-04-10 17:12:00,50.4,48.4,29.86,NW,311,8.0,11.0,93,0.03,,,0.23,meteohub,2013-04-10 21:12:00,
2013-04-10 17:17:00,50.4,48.7,29.90,NNW,335,4.0,11.0,94,0.11,,,0.31,meteohub,2013-04-10 21:17:00,
2013-04-10 17:22:00,50.4,48.7,29.89,NW,312,3.0,10.0,94,0.14,,,0.34,meteohub,2013-04-10 21:22:00,
2013-04-10 17:27:00,50.7,49.3,29.87,WNW,286,1.0,9.0,95,0.16,,,0.36,meteohub,2013-04-10 21:27:00,
2013-04-10 17:32:00,51.3,50.2,29.84,West,271,1.0,6.0,96,0.17,,,0.37,meteohub,2013-04-10 21:32:00,
2013-04-10 17:38:00,52.0,50.9,29.84,West,271,5.0,5.0,96,0.17,,,0.37,meteohub,2013-04-10 21:38:00,
2013-04-10 17:43:00,52.9,52.0,29.83,WSW,244,3.0,7.0,97,0.17,,,0.37,meteohub,2013-04-10 21:43:00,
2013-04-10 17:48:00,54.0,53.1,29.81,SW,220,1.0,7.0,97,0.18,,,0.38,meteohub,2013-04-10 21:48:00,
2013-04-10 17:53:00,54.3,53.4,29.81,West,277,0.0,7.0,97,0.18,,,0.38,meteohub,2013-04-10 21:53:00,
2013-04-10 17:59:00,54.3,53.4,29.80,ENE,68,8.0,8.0,97,0.19,,,0.39,meteohub,2013-04-10 21:59:00,
2013-04-10 18:04:00,54.1,53.1,29.79,East,95,2.0,4.0,96,0.19,,,0.39,meteohub,2013-04-10 22:04:00,
2013-04-10 18:09:00,53.8,52.7,29.78,ENE,73,3.0,8.0,96,0.18,,,0.39,meteohub,2013-04-10 22:09:00,
2013-04-10 18:15:00,53.4,52.3,29.83,NW,311,6.0,8.0,96,0.16,,,0.39,meteohub,2013-04-10 22:15:00,
2013-04-10 18:20:00,53.8,52.7,29.85,East,90,2.0,7.0,96,0.07,,,0.39,meteohub,2013-04-10 22:20:00,
2013-04-10 18:25:00,54.0,52.9,29.86,NNE,30,6.0,10.0,96,0.03,,,0.39,meteohub,2013-04-10 22:25:00,
2013-04-10 18:30:00,52.5,50.9,29.87,NNE,27,3.0,10.0,94,0.02,,,0.39,meteohub,2013-04-10 22:30:00,
2013-04-10 18:35:00,50.9,48.9,29.87,NNW,342,8.0,10.0,93,0.02,,,0.39,meteohub,2013-04-10 22:35:00,
2013-04-10 18:41:00,49.1,47.1,29.88,NE,52,0.0,10.0,93,0.02,,,0.39,meteohub,2013-04-10 22:41:00,
2013-04-10 18:46:00,48.0,46.0,29.88,East,90,2.0,11.0,93,0.01,,,0.39,meteohub,2013-04-10 22:46:00,
2013-04-10 18:52:00,47.5,45.9,29.88,NE,51,2.0,11.0,94,0.00,,,0.39,meteohub,2013-04-10 22:52:00,
2013-04-10 18:57:00,47.1,45.5,29.89,NE,52,4.0,9.0,94,0.00,,,0.39,meteohub,2013-04-10 22:57:00,
2013-04-10 19:02:00,46.8,45.3,29.88,NNE,33,1.0,7.0,95,0.00,,,0.39,meteohub,2013-04-10 23:02:00,
2013-04-10 19:07:00,46.6,45.1,29.89,ENE,72,3.0,10.0,95,0.00,,,0.39,meteohub,2013-04-10 23:07:00,
2013-04-10 19:12:00,46.0,44.6,29.89,East,88,3.0,10.0,95,0.00,,,0.39,meteohub,2013-04-10 23:12:00,
2013-04-10 19:17:00,45.9,44.4,29.89,East,101,3.0,10.0,95,0.00,,,0.39,meteohub,2013-04-10 23:17:00,
2013-04-10 19:23:00,45.3,44.1,29.89,ENE,73,2.0,8.0,95,0.00,,,0.39,meteohub,2013-04-10 23:23:00,
2013-04-10 19:28:00,44.6,43.0,29.91,ENE,57,7.0,7.0,94,0.00,,,0.39,meteohub,2013-04-10 23:28:00,
2013-04-10 19:33:00,43.5,41.9,29.91,SSE,149,4.0,7.0,94,0.00,,,0.39,meteohub,2013-04-10 23:33:00,
2013-04-10 19:38:00,42.6,41.0,29.91,SE,142,3.0,8.0,94,0.00,,,0.39,meteohub,2013-04-10 23:38:00,
2013-04-10 19:44:00,42.3,41.0,29.92,NE,46,5.0,8.0,95,0.00,,,0.39,meteohub,2013-04-10 23:44:00,
2013-04-10 19:49:00,41.5,40.3,29.94,SE,132,1.0,8.0,95,0.00,,,0.39,meteohub,2013-04-10 23:49:00,
2013-04-10 19:54:00,41.4,40.1,29.96,NNE,32,2.0,8.0,95,0.00,,,0.39,meteohub,2013-04-10 23:54:00,
2013-04-10 20:00:00,41.2,39.9,29.94,ENE,76,1.0,8.0,95,0.00,,,0.39,meteohub,2013-04-11 00:00:00,
2013-04-10 20:05:00,41.2,39.9,29.94,NE,49,2.0,5.0,95,0.00,,,0.39,meteohub,2013-04-11 00:05:00,
2013-04-10 20:10:00,41.0,39.7,29.93,ESE,108,2.0,6.0,95,0.01,,,0.40,meteohub,2013-04-11 00:10:00,
2013-04-10 20:15:00,40.8,39.7,29.93,East,88,2.0,6.0,96,0.03,,,0.42,meteohub,2013-04-11 00:15:00,
2013-04-10 20:20:00,40.6,39.6,29.94,ENE,71,3.0,5.0,96,0.04,,,0.43,meteohub,2013-04-11 00:20:00,
2013-04-10 20:25:00,40.6,39.6,29.95,ENE,73,2.0,8.0,96,0.05,,,0.44,meteohub,2013-04-11 00:25:00,
2013-04-10 20:31:00,40.6,39.6,29.96,North,0,2.0,8.0,96,0.07,,,0.46,meteohub,2013-04-11 00:31:00,
2013-04-10 20:36:00,40.5,39.4,29.97,NNE,26,4.0,8.0,96,0.08,,,0.47,meteohub,2013-04-11 00:36:00,
2013-04-10 20:41:00,40.3,39.2,29.97,NE,51,3.0,7.0,96,0.09,,,0.48,meteohub,2013-04-11 00:41:00,
2013-04-10 20:46:00,40.3,39.2,29.97,ESE,107,7.0,7.0,96,0.11,,,0.50,meteohub,2013-04-11 00:46:00,
2013-04-10 20:52:00,40.1,39.0,29.96,ENE,65,4.0,7.0,96,0.12,,,0.51,meteohub,2013-04-11 00:52:00,
2013-04-10 20:57:00,39.9,38.8,29.94,East,93,2.0,7.0,96,0.13,,,0.52,meteohub,2013-04-11 00:57:00,
2013-04-10 21:02:00,39.9,38.8,29.92,East,98,5.0,7.0,96,0.14,,,0.53,meteohub,2013-04-11 01:02:00,
2013-04-10 21:07:00,39.7,38.7,29.91,SE,130,2.0,7.0,96,0.14,,,0.54,meteohub,2013-04-11 01:07:00,
2013-04-10 21:12:00,39.7,38.7,29.90,SE,136,5.0,10.0,96,0.14,,,0.55,meteohub,2013-04-11 01:12:00,
2013-04-10 21:17:00,39.7,38.7,29.88,SE,128,6.0,11.0,96,0.13,,,0.55,meteohub,2013-04-11 01:17:00,
2013-04-10 21:22:00,39.7,38.7,29.86,SE,132,5.0,11.0,96,0.12,,,0.55,meteohub,2013-04-11 01:22:00,
2013-04-10 21:27:00,39.6,38.5,29.86,SE,144,7.0,14.0,96,0.11,,,0.56,meteohub,2013-04-11 01:27:00,
2013-04-10 21:33:00,39.6,38.5,29.85,SSE,161,5.0,14.0,96,0.09,,,0.56,meteohub,2013-04-11 01:33:00,
2013-04-10 21:38:00,39.6,38.5,29.89,SE,144,9.0,14.0,96,0.09,,,0.56,meteohub,2013-04-11 01:38:00,
2013-04-10 21:43:00,39.6,38.5,29.91,South,180,3.0,14.0,96,0.07,,,0.56,meteohub,2013-04-11 01:43:00,
2013-04-10 21:48:00,39.6,38.5,29.95,NE,52,5.0,14.0,96,0.06,,,0.56,meteohub,2013-04-11 01:48:00,
2013-04-10 21:54:00,39.7,38.7,29.94,ENE,58,4.0,11.0,96,0.05,,,0.56,meteohub,2013-04-11 01:54:00,
2013-04-10 21:59:00,39.7,38.7,29.94,East,84,2.0,10.0,96,0.03,,,0.56,meteohub,2013-04-11 01:59:00,
2013-04-10 22:04:00,39.7,38.7,29.94,SE,129,2.0,10.0,96,0.03,,,0.56,meteohub,2013-04-11 02:04:00,
2013-04-10 22:09:00,39.7,38.7,29.93,NE,53,3.0,8.0,96,0.02,,,0.56,meteohub,2013-04-11 02:09:00,
2013-04-10 22:14:00,39.6,38.5,29.92,ESE,117,3.0,8.0,96,0.01,,,0.56,meteohub,2013-04-11 02:14:00,
2013-04-10 22:20:00,39.6,38.5,29.92,ESE,115,1.0,8.0,96,0.01,,,0.56,meteohub,2013-04-11 02:20:00,
2013-04-10 22:25:00,39.6,38.5,29.92,SE,130,3.0,8.0,96,0.01,,,0.56,meteohub,2013-04-11 02:25:00,
2013-04-10 22:30:00,39.6,38.8,29.92,SSE,159,2.0,8.0,97,0.00,,,0.56,meteohub,2013-04-11 02:30:00,
2013-04-10 22:35:00,39.6,38.8,29.91,SSE,147,3.0,6.0,97,0.00,,,0.56,meteohub,2013-04-11 02:35:00,
2013-04-10 22:40:00,39.7,38.7,29.90,SSE,150,2.0,5.0,96,0.00,,,0.56,meteohub,2013-04-11 02:40:00,
2013-04-10 22:45:00,39.7,39.0,29.90,SE,130,1.0,5.0,97,0.00,,,0.56,meteohub,2013-04-11 02:45:00,
2013-04-10 22:50:00,39.7,39.0,29.90,SE,138,3.0,7.0,97,0.00,,,0.56,meteohub,2013-04-11 02:50:00,
2013-04-10 22:56:00,39.7,39.0,29.90,SE,137,6.0,7.0,97,0.00,,,0.56,meteohub,2013-04-11 02:56:00,
2013-04-10 23:02:00,39.7,39.0,29.89,ESE,103,5.0,7.0,97,0.00,,,0.56,meteohub,2013-04-11 03:02:00,
2013-04-10 23:07:00,39.7,39.0,29.89,SE,133,3.0,7.0,97,0.00,,,0.56,meteohub,2013-04-11 03:07:00,
2013-04-10 23:12:00,39.7,39.0,29.89,SE,129,3.0,10.0,97,0.00,,,0.56,meteohub,2013-04-11 03:12:00,
2013-04-10 23:17:00,39.7,39.0,29.90,SSE,147,6.0,10.0,97,0.00,,,0.56,meteohub,2013-04-11 03:17:00,
2013-04-10 23:22:00,39.7,39.0,29.91,ESE,115,2.0,10.0,97,0.00,,,0.56,meteohub,2013-04-11 03:22:00,
2013-04-10 23:28:00,39.7,39.0,29.91,SSE,156,3.0,6.0,97,0.00,,,0.56,meteohub,2013-04-11 03:28:00,
2013-04-10 23:33:00,39.7,39.0,29.91,SE,141,0.0,6.0,97,0.00,,,0.56,meteohub,2013-04-11 03:33:00,
2013-04-10 23:38:00,39.9,39.2,29.92,SSE,147,0.0,5.0,97,0.00,,,0.56,meteohub,2013-04-11 03:38:00,
2013-04-10 23:43:00,39.9,39.2,29.92,SE,136,0.0,5.0,97,0.00,,,0.56,meteohub,2013-04-11 03:43:00,
2013-04-10 23:48:00,39.9,39.2,29.93,ESE,120,0.0,5.0,97,0.00,,,0.56,meteohub,2013-04-11 03:48:00,
2013-04-10 23:53:00,39.9,39.2,29.94,ESE,123,0.0,3.0,97,0.00,,,0.56,meteohub,2013-04-11 03:53:00,
2013-04-10 23:59:00,40.1,39.4,29.94,ESE,123,0.0,3.0,97,0.00,,,0.56,meteohub,2013-04-11 03:59:00,